EW2725 Weather Reports


Display with metric or nautical units.
time (UTC)temp
F
wind
direction
speed
MPH
gust
MPH
rain 1hr
in
rain 24hr
in
rain mn
in
humidity
%
barometer
mb
20260903134634 68 252 2.0 0.0 0.00 0.00 0.26 91 1100.1
20260903133132 68 252 2.0 0.0 0.00 0.00 0.26 91 1100.1
20260903131635 68 252 2.0 0.0 0.00 0.00 0.25 91 1100.1
20260903130020 67 252 3.0 0.0 0.00 0.00 0.25 91 1100.1
20260903124607 67 252 3.0 0.0 0.00 0.00 0.25 91 1100.1
20260903123114 66 192 4.0 0.0 0.00 0.00 0.24 91 1100.1
20260903121620 66 144 2.0 0.0 0.00 0.00 0.23 91 1100.1
20260903120119 66 270 2.0 0.0 0.00 0.00 0.22 91 1100.1
20260903114623 66 76 3.0 0.0 0.00 0.00 0.19 90 1100.1
20260903113136 66 180 2.0 0.0 0.00 0.00 0.19 90 1100.1
20260903111634 65 217 2.0 0.0 0.00 0.00 0.19 90 1100.1
20260903110004 65 241 1.0 0.0 0.00 0.00 0.19 90 1100.1
20260903104634 65 241 1.0 0.0 0.00 0.00 0.19 90 1100.1
20260903103053 65 241 1.0 0.0 0.00 0.00 0.18 90 1100.1
20260903101507 65 234 0.0 0.0 0.00 0.00 0.05 89 1100.1
20260903100006 65 234 0.0 0.0 0.00 0.00 0.04 89 1100.1
20260903094642 65 82 0.0 0.0 0.00 0.00 0.02 89 1100.1
20260903093006 65 104 0.0 0.0 0.00 0.00 0.02 89 1100.1
20260903091623 65 104 0.0 0.0 0.00 0.00 0.01 88 1100.1
20260903090136 64 104 0.0 0.0 0.00 0.00 0.01 88 1100.1
20260903084501 64 104 0.0 0.0 0.00 0.00 0.01 88 1100.1
20260903083009 64 104 0.0 0.0 0.00 0.00 0.01 87 1100.1
20260903081607 64 104 0.0 0.0 0.00 0.00 0.00 86 1100.1
20260903080106 64 104 0.0 0.0 0.00 0.00 0.00 85 1100.1
20260903074622 64 104 0.0 0.0 0.00 0.00 0.00 86 1100.1
20260903073124 63 104 0.0 0.0 0.00 0.00 0.00 86 1100.1
20260903071632 63 103 0.0 0.0 0.00 0.00 0.00 86 1100.1
20260903070114 63 111 0.0 0.0 0.00 0.00 0.00 86 1100.1
20260903064614 63 175 0.0 0.0 0.00 0.00 0.00 85 1100.1
20260903063114 62 175 0.0 0.0 0.00 0.00 0.00 85 1100.1
20260903061626 62 175 0.0 0.0 0.00 0.00 0.00 85 1100.1
20260903060127 62 175 0.0 0.0 0.00 0.00 0.00 85 1100.1
20260903054643 61 175 0.0 0.0 0.00 0.00 0.00 86 1100.1
20260903053001 61 360 0.0 0.0 0.00 0.00 0.00 86 1100.1
20260903051503 60 360 0.0 0.0 0.00 0.00 0.00 86 1100.1
20260903050007 60 175 0.0 0.0 0.00 0.00 0.00 86 1100.1
20260903044604 60 175 0.0 0.0 0.00 0.00 0.00 86 1100.1
20260903043104 60 360 0.0 0.0 0.00 0.00 0.00 86 1100.1
20260903031624 60 175 0.0 0.0 0.00 0.00 0.00 87 1100.1
20260903030116 60 175 0.0 0.0 0.00 0.00 0.00 87 1100.1
20260903024503 61 175 0.0 0.0 0.00 0.00 0.00 86 1100.1
20260903023058 61 175 0.0 0.0 0.00 0.00 0.00 87 1100.1
20260903021513 61 175 0.0 0.0 0.00 0.00 0.00 86 1100.1
20260903020106 61 175 0.0 0.0 0.00 0.00 0.00 86 1100.1
20260903014510 61 175 0.0 0.0 0.00 0.00 0.00 85 1100.1
20260903013201 61 175 0.0 0.0 0.00 0.00 0.00 85 1100.1
20260903011640 61 175 0.0 0.0 0.00 0.00 0.00 84 1100.1
20260903010134 62 175 0.0 0.0 0.00 0.00 0.00 83 1100.1
20260903004635 62 175 0.0 0.0 0.00 0.00 0.00 82 1100.1
20260903003008 63 175 0.0 0.0 0.00 0.00 0.00 80 1100.1
20260903001608 64 175 0.0 0.0 0.00 0.00 0.00 79 1100.1
20260903000118 64 175 0.0 0.0 0.00 0.00 0.00 80 1100.1
20260902234611 64 175 0.0 0.0 0.00 0.00 0.00 82 1100.1
20260902233118 65 175 0.0 0.0 0.00 0.00 0.00 81 1100.1
20260902231619 66 175 0.0 0.0 0.00 0.00 0.00 79 1100.1
20260902224505 68 54 0.0 0.0 0.00 0.00 0.00 77 1100.1
20260902223135 68 62 1.0 0.0 0.00 0.00 0.00 76 1100.1
20260902221620 69 79 1.0 0.0 0.00 0.00 0.00 75 1100.1
20260902220127 69 58 2.0 0.0 0.00 0.00 0.00 74 1100.1
20260902214507 69 42 1.0 0.0 0.00 0.00 0.00 73 1100.1
20260902213104 70 267 2.0 0.0 0.00 0.00 0.00 73 1100.1
20260902211502 70 10 4.0 0.0 0.00 0.00 0.00 73 1100.1
20260902210142 70 321 3.0 0.0 0.00 0.00 0.00 71 1100.1
20260902204638 71 343 3.0 0.0 0.00 0.00 0.00 69 1100.1
20260902203110 71 17 3.0 0.0 0.00 0.00 0.00 69 1100.1
20260902201635 71 24 5.0 0.0 0.00 0.00 0.00 69 1100.1
20260902200123 71 34 5.0 0.0 0.00 0.00 0.00 68 1100.1
20260902194509 71 16 5.0 0.0 0.00 0.00 0.00 68 1100.1
20260902193006 71 360 5.0 0.0 0.00 0.00 0.00 68 1100.1
20260902191650 72 13 5.0 0.0 0.00 0.00 0.00 68 1100.1
20260902190017 71 5 5.0 0.0 0.00 0.00 0.00 68 1100.1
20260902184511 71 28 5.0 0.0 0.00 0.00 0.00 67 1100.1
20260902183103 71 31 5.0 0.0 0.00 0.00 0.00 69 1100.1
20260902181617 72 254 4.0 0.0 0.00 0.00 0.00 69 1100.1
20260902180012 71 355 5.0 0.0 0.00 0.00 0.00 67 1100.1
20260902174511 72 5 4.0 0.0 0.00 0.00 0.00 66 1100.1
20260902173103 72 235 3.0 0.0 0.00 0.00 0.00 64 1100.1
20260902171511 71 323 4.0 0.0 0.00 0.00 0.00 67 1100.1
20260902170104 71 355 5.0 0.0 0.00 0.00 0.00 67 1100.1
20260902164517 71 342 5.0 0.0 0.00 0.00 0.00 68 1100.1
20260902163014 71 15 4.0 0.0 0.00 0.00 0.00 67 1100.1
20260902161607 71 355 5.0 0.0 0.00 0.00 0.00 68 1100.1
20260902160110 71 299 5.0 0.0 0.00 0.00 0.00 68 1100.1
20260902154505 71 32 4.0 0.0 0.00 0.00 0.00 69 1100.1
20260902153141 70 34 5.0 0.0 0.00 0.00 0.00 70 1100.1
20260902151620 70 22 4.0 0.0 0.00 0.00 0.00 71 1100.1
20260902150105 69 226 4.0 0.0 0.00 0.00 0.00 72 1100.1
20260902144558 69 22 4.0 0.0 0.00 0.00 0.00 74 1100.1
20260902143113 69 34 3.0 0.0 0.00 0.00 0.00 74 1100.1
20260902141619 69 355 3.0 0.0 0.00 0.00 0.00 74 1100.1
20260902140120 69 247 4.0 0.0 0.00 0.00 0.00 74 1100.1